TimeEDT,TemperatureF,Dew PointF,Humidity,Sea Level PressureIn,VisibilityMPH,Wind Direction,Wind SpeedMPH,Gust SpeedMPH,PrecipitationIn,Events,Conditions,WindDirDegrees,DateUTC
12:53 AM,77.0,68.0,74,30.28,10.0,Calm,Calm,-,N/A,,Clear,0,2013-07-16 04:53:00
1:53 AM,75.0,68.0,79,30.28,10.0,ESE,3.5,-,N/A,,Clear,120,2013-07-16 05:53:00
2:53 AM,73.9,68.0,82,30.28,10.0,ESE,3.5,-,N/A,,Clear,110,2013-07-16 06:53:00
3:53 AM,73.9,68.0,82,30.27,10.0,Calm,Calm,-,N/A,,Clear,0,2013-07-16 07:53:00
4:53 AM,72.0,68.0,87,30.28,10.0,Calm,Calm,-,N/A,,Clear,0,2013-07-16 08:53:00
5:53 AM,70.0,68.0,93,30.29,10.0,Calm,Calm,-,N/A,,Clear,0,2013-07-16 09:53:00
6:53 AM,72.0,69.1,91,30.30,10.0,Calm,Calm,-,N/A,,Clear,0,2013-07-16 10:53:00
7:53 AM,73.9,70.0,87,30.32,10.0,Calm,Calm,-,N/A,,Clear,0,2013-07-16 11:53:00
8:53 AM,75.9,70.0,82,30.34,10.0,Calm,Calm,-,N/A,,Clear,0,2013-07-16 12:53:00
9:53 AM,80.1,69.1,69,30.33,10.0,Calm,Calm,-,N/A,,Clear,0,2013-07-16 13:53:00
10:53 AM,82.9,70.0,65,30.34,10.0,Calm,Calm,-,N/A,,Clear,0,2013-07-16 14:53:00
11:53 AM,84.9,70.0,61,30.33,10.0,Calm,Calm,-,N/A,,Clear,0,2013-07-16 15:53:00
12:53 PM,87.1,73.0,63,30.32,10.0,Calm,Calm,-,N/A,,Partly Cloudy,0,2013-07-16 16:53:00
1:53 PM,87.1,69.1,55,30.30,10.0,Calm,Calm,-,N/A,,Scattered Clouds,0,2013-07-16 17:53:00
2:53 PM,88.0,70.0,55,30.28,10.0,Calm,Calm,-,N/A,,Clear,0,2013-07-16 18:53:00
3:53 PM,84.0,71.1,65,30.28,10.0,Calm,Calm,-,N/A,,Scattered Clouds,0,2013-07-16 19:53:00
4:53 PM,89.1,69.1,52,30.27,10.0,Calm,Calm,-,N/A,,Partly Cloudy,0,2013-07-16 20:53:00
5:53 PM,88.0,71.1,57,30.26,10.0,Calm,Calm,-,N/A,,Clear,0,2013-07-16 21:53:00
6:53 PM,86.0,72.0,63,30.27,10.0,Calm,Calm,-,N/A,,Clear,0,2013-07-16 22:53:00
7:53 PM,84.9,71.1,63,30.27,10.0,Calm,Calm,-,N/A,,Clear,0,2013-07-16 23:53:00
8:53 PM,80.1,71.1,74,30.27,10.0,Calm,Calm,-,N/A,,Clear,0,2013-07-17 00:53:00
9:53 PM,79.0,71.1,77,30.27,10.0,Calm,Calm,-,N/A,,Clear,0,2013-07-17 01:53:00
10:53 PM,79.0,70.0,74,30.28,10.0,Calm,Calm,-,N/A,,Clear,0,2013-07-17 02:53:00
11:53 PM,77.0,70.0,79,30.28,10.0,Calm,Calm,-,N/A,,Clear,0,2013-07-17 03:53:00